Meteor 2-1 Rocket - Orbit

View from above orbital plane
View from above orbital plane
View from above satellite
View from above satellite

Ground track
Ground track

The orbit data is extracted from the following two-line orbital elements,

1 08027U 75064B   13138.86158882  .00000159  00000-0  86238-4 0  8008
2 08027 081.2998 050.8437 0054094 151.2158 274.6243 14.07131328942876
Epoch (UTC): 18 May 2013 20:40:41
Eccentricity: 0.0054094
inclination: 81.2998°
perigee height: 830 km
apogee height: 908 km
right ascension of ascending node: 50.8437°
argument of perigee: 151.2158°
revolutions per day: 14.07131328
mean anomaly at epoch: 274.6243°
orbit number at epoch: 94287

The dashed part of the orbit path shows where the satellite is in the earth's shadow,  

Developed and maintained by Chris Peat, Heavens-Above GmbH. Please read the updated FAQ before sending e-mail. Imprint. DLR